Weather History for LICZ - January, 2013

Change the Weather History Date:

Thursday, January 17, 2013

  Actual Average Record
Temperature  
Mean Temperature 52 °F -  
Max Temperature 59 °F 61 °F 66 °F (2015)
Min Temperature 44 °F 42 °F 28 °F (2005)
Degree Days  
Heating Degree Days 14    
Growing Degree Days 2 (Base 50)    
Moisture  
Dew Point 48 °F    
Average Humidity 85    
Maximum Humidity 100    
Minimum Humidity 62    
Precipitation  
Precipitation 0.02 in 0.07 in - ()
Sea Level Pressure  
Sea Level Pressure 29.60 in    
Wind  
Wind Speed 11 mph ()    
Max Wind Speed 22 mph    
Max Gust Speed 31 mph    
Visibility 5.5 miles    
Events Rain    
Averages and records for this station are not official NWS values.
T = Trace of Precipitation, MM = Missing Value Source: Averaged Metar Reports

Daily Weather History Graph

Daily Weather History Graph

Search for Another Location

Airport or City:

Trip Planner

Search our weather history database for the weather conditions in past years. The results will help you decide how hot, cold, wet, or windy it might be!

Date:

Astronomy

Jan. 17, 2013 Rise Set
Actual Time 7:12 AM CET 5:08 PM CET
Civil Twilight 6:44 AM CET 5:36 PM CET
Nautical Twilight 6:12 AM CET 6:08 PM CET
Astronomical Twilight 5:41 AM CET 6:40 PM CET
Moon 10:19 AM CET (1/17) 11:33 PM CET (1/17)
Length of Visible Light 10h 52m
Length of Day
9h 55m
Waxing Crescent, 35% of the Moon is Illuminated
Jan 17
Waxing Crescent
Jan 19
First Quarter
Jan 27
Full
Feb 3
Last Quarter
Feb 10
New

Hourly Weather History & Observations

Time (CET) Temp. Windchill Dew Point Humidity Pressure Visibility Wind Dir Wind Speed Gust Speed Precip Events Conditions
12:55 AM 48.2 °F - 46.4 °F 93% 29.71 in 6.2 mi NNE 3.5 mph - N/A   Mostly Cloudy
1:00 AM 47 °F - 47 °F 99% 29.73 in 6 mi NNE 3.5 mph - -   Partly Cloudy
1:55 AM 48.2 °F - 48.2 °F 100% 29.71 in 6.2 mi West 2.3 mph - N/A   Mostly Cloudy
2:55 AM 53.6 °F - 44.6 °F 72% 29.68 in 6.2 mi West 9.2 mph - N/A   Mostly Cloudy
3:55 AM 51.8 °F - 46.4 °F 82% 29.65 in 6.2 mi West 17.3 mph - N/A   Mostly Cloudy
4:00 AM 52 °F - 46 °F 73% 29.67 in 9 mi West 17.3 mph - -   Partly Cloudy
4:55 AM 48.2 °F - 44.6 °F 87% 29.65 in 6.2 mi West 8.1 mph - N/A   Mostly Cloudy
5:55 AM 48.2 °F - 48.2 °F 100% 29.62 in 6.2 mi WSW 6.9 mph - N/A   Mostly Cloudy
6:55 AM 51.8 °F - 50.0 °F 94% 29.62 in 6.2 mi West 17.3 mph - N/A   Mostly Cloudy
7:00 AM 53 °F - 49 °F 84% 29.64 in 7 mi West 17.3 mph - -   Partly Cloudy
7:55 AM 51.8 °F - 48.2 °F 88% 29.62 in 6.2 mi West 11.5 mph - N/A   Mostly Cloudy
8:55 AM 53.6 °F - 48.2 °F 82% 29.62 in 6.2 mi West 10.4 mph - N/A   Mostly Cloudy
9:55 AM 57.2 °F - 50.0 °F 77% 29.62 in 6.2 mi West 11.5 mph - N/A   Scattered Clouds
10:00 AM 57 °F - 50 °F 72% 29.65 in 6 mi West 11.5 mph - -   Partly Cloudy
10:55 AM 57.2 °F - 51.8 °F 82% 29.62 in 6.2 mi WSW 12.7 mph - N/A   Mostly Cloudy
11:11 AM 55.4 °F - 51.8 °F 88% 29.59 in 5.0 mi WSW 12.7 mph - N/A Rain Light Rain
11:55 AM 57.2 °F - 50.0 °F 77% 29.59 in 5.0 mi West 16.1 mph - N/A   Mostly Cloudy
12:55 PM 59.0 °F - 50.0 °F 72% 29.56 in 5.0 mi WSW 21.9 mph - N/A   Mostly Cloudy
1:00 PM 59 °F - 51 °F 66% 29.58 in 5 mi WSW 21.9 mph - -   Mist
1:55 PM 57.2 °F - 48.2 °F 72% 29.53 in 5.0 mi WSW 21.9 mph - N/A   Mostly Cloudy
2:55 PM 53.6 °F - 48.2 °F 82% 29.53 in 5.0 mi WSW 21.9 mph - N/A Rain Light Rain
3:55 PM 55.4 °F - 53.6 °F 94% 29.53 in 3.1 mi West 18.4 mph 31.1 mph N/A Rain Light Rain
4:00 PM 55 °F - 54 °F 95% 29.54 in 3 mi West 18.4 mph - - Rain Light Rain
4:55 PM 51.8 °F - 50.0 °F 94% 29.53 in 3.7 mi West 13.8 mph - N/A Rain Light Rain
5:55 PM 50.0 °F - 50.0 °F 100% 29.50 in 3.7 mi WSW 10.4 mph - N/A Rain Light Rain
6:55 PM 50.0 °F - 50.0 °F 100% 29.56 in 3.1 mi WNW 20.7 mph - N/A Rain Light Rain
7:00 PM 50 °F - 50 °F 98% 29.57 in 3 mi WNW 20.7 mph - - Rain Light Rain
7:55 PM 48.2 °F - 48.2 °F 100% 29.56 in 3.7 mi NW 8.1 mph - N/A   Mostly Cloudy
8:55 PM 44.6 °F 39.7 °F 42.8 °F 93% 29.53 in 6.2 mi WSW 9.2 mph - N/A   Scattered Clouds
9:55 PM 48.2 °F - 39.2 °F 71% 29.56 in 6.2 mi WNW 18.4 mph - N/A   Scattered Clouds
10:00 PM 49 °F - 40 °F 62% 29.57 in 7 mi WNW 18.4 mph - -   Partly Cloudy
10:55 PM 48.2 °F - 37.4 °F 66% 29.56 in 6.2 mi WNW 13.8 mph - N/A   Scattered Clouds
11:55 PM 44.6 °F 36.9 °F 37.4 °F 76% 29.56 in 6.2 mi West 18.4 mph - N/A   Partly Cloudy